#timestamp,LO_Frequency,Hit,StdDev 
1678136415.5,286047001.2,N
1678136435.4,286046996.5,N
1678136455.2,286047000.3,N
1678136475.0,286046998.2,N
1678136475.9,286046998.2,N
1678136495.8,286046996.9,N
1678136515.6,286047000.5,N
1678136535.5,286046998.7,N
1678136555.3,286047000.3,N
1678136575.1,286046999.4,N
1678136595.9,286046996.1,N
1678136645.7,286047000.3,E
1678136655.7,286047004.4,N
1678136675.5,286046998.5,P
1678136695.3,286047001.1,N
1678136715.2,286046998.9,N
1678136735.0,286046999.1,N
1678136735.9,286046999.1,N
1678136755.7,286046999.3,N
1678136775.6,286047000.8,N
1678136795.4,286047000.7,N
1678136815.3,286046995.3,N
1678136835.1,286047000.3,N
1678136836.0,286047000.3,N
1678136855.8,286047001.8,N
1678136875.7,286047001.6,N
1678136895.5,286047001.5,N
1678136915.3,286047000.5,N
1678136935.2,286047002.9,N
1678136955.0,286047005.1,N
1678136955.9,286047005.1,N
1678136975.8,286047004.9,N
1678136995.6,286047003.2,N
1678137015.4,286047003.1,N
1678137035.3,286047005.1,N
1678137055.1,286047005.2,N
1678137075.8,286047005.9,N
1678137095.7,286047004.7,N
1678137115.5,286047006.0,N
1678137135.4,286047003.0,N
1678137155.2,286047003.2,N
1678137175.0,286047004.0,N
1678137175.9,286047004.0,N
1678137195.8,286047002.9,N
1678137215.6,286047003.6,N
1678137235.4,286047006.0,N
1678137255.3,286047003.4,N
1678137275.1,286047003.5,N
1678137295.9,286047005.7,N
1678137315.7,286047004.5,N
1678137335.5,286047005.7,N
1678137355.4,286047005.3,N
1678137375.2,286047005.0,N
1678137395.0,286047007.2,Y
1678137396.0,286047007.2,P
1678137415.8,286047000.7,N
1678137435.6,286046999.2,N
1678137455.5,286046999.5,N
1678137475.3,286046999.4,N
1678137495.1,286046999.4,N
1678137515.9,286046998.4,N
1678137535.7,286047000.8,N
1678137555.5,286047002.1,N
1678137575.4,286047004.0,N
1678137595.2,286047002.6,N
1678137615.1,286047000.4,N
1678137616.0,286047000.4,N
1678137635.8,286047001.2,N
1678137655.6,286046998.4,N
1678137675.5,286046998.2,N
1678137695.3,286046998.8,N
1678137715.1,286046998.4,N
1678137735.9,286046999.4,N
1678137755.7,286046994.1,N
1678137775.6,286046994.6,N
1678137795.4,286046995.6,N
1678137815.2,286046994.2,N
1678137835.1,286046996.6,N
1678137836.0,286046996.6,N
1678137855.8,286046993.1,N
1678137875.7,286046994.8,N
1678137895.5,286046993.8,N
1678137915.3,286046996.0,N
1678137935.2,286046994.0,N
1678137955.0,286046994.6,N
1678137955.9,286046994.6,N
1678137975.8,286046997.1,N
1678137995.6,286046994.9,N
1678138015.4,286046999.4,N
1678138035.3,286046995.5,N
1678138055.1,286046992.9,N
1678138075.8,286046995.8,N
1678138095.7,286046999.6,N
1678138115.5,286046996.9,N
1678138135.4,286046997.1,N
1678138155.2,286046995.4,N
1678138175.0,286046997.1,N
1678138175.9,286046997.1,N
1678138195.8,286046993.4,Y
1678138215.6,286047001.8,P
1678138235.5,286047000.2,N
1678138255.3,286047001.1,N
1678138275.1,286046997.2,N
1678138295.9,286047004.0,N
1678138315.7,286047002.6,N
1678138335.6,286047002.5,N
1678138355.4,286047002.4,N
1678138375.2,286047001.4,N
1678138395.1,286047001.6,N
1678138396.0,286047001.6,N
1678138415.8,286047002.6,N
1678138435.6,286047001.4,N
1678138455.5,286047003.9,N
1678138475.3,286047002.1,N
1678138495.2,286047001.9,N
1678138515.9,286047001.7,N
1678138535.7,286047002.6,N
1678138555.6,286047002.6,N
1678138575.4,286047002.3,N
1678138595.2,286047002.5,N
1678138615.1,286047002.8,N
1678138616.0,286047002.8,N
1678138635.8,286047001.1,N
1678138655.7,286046998.4,N
1678138675.5,286047000.5,N
1678138695.3,286047001.1,N
1678138715.2,286046999.0,N
1678138735.0,286047003.1,N
1678138735.9,286047003.1,N
1678138755.8,286047002.7,N
1678138775.6,286046997.1,N
1678138795.4,286047002.8,N
1678138815.3,286047011.9,Y
1678138835.1,286046999.8,P
1678138855.8,286047000.0,N
1678138875.7,286046999.0,N
1678138895.5,286046995.7,Y
1678138915.4,286046993.5,P
1678138935.2,286046986.3,P
1678138955.0,286046995.9,N
1678138955.9,286046995.9,N
1678138975.8,286046997.3,N
1678138995.6,286047002.0,N
1678139015.4,286046997.7,N
1678139035.3,286046995.2,N
1678139055.1,286046995.7,N
1678139075.9,286046997.5,N
1678139095.7,286046996.4,N
1678139115.5,286047000.3,N
1678139135.4,286047000.6,N
1678139155.2,286047002.8,N
1678139175.0,286047000.4,N
1678139175.9,286047000.4,N
1678139195.8,286046998.9,N
1678139215.6,286046999.6,N
1678139235.5,286046996.5,N
1678139255.3,286046996.8,N
1678139275.1,286046996.7,N
1678139295.9,286046998.6,N
1678139315.7,286046999.9,N
1678139335.5,286047000.0,N
1678139355.4,286046999.8,N
1678139375.2,286046998.6,N
1678139395.1,286046999.0,N
1678139396.0,286046999.0,N
1678139415.8,286047000.5,N
1678139435.6,286047002.4,N
1678139455.5,286046998.7,N
1678139475.3,286046998.6,N
1678139495.1,286047000.0,N
1678139515.9,286047000.6,N
1678139535.7,286047001.0,N
1678139555.6,286046998.5,N
1678139575.4,286047001.2,N
1678139595.2,286047000.3,N
1678139615.1,286047000.4,N
1678139616.0,286047000.4,N
1678139635.8,286047000.3,N
1678139655.6,286047001.3,N
1678139675.5,286047002.2,N
1678139695.3,286046998.5,N
1678139715.1,286046998.5,N
1678139735.9,286046998.7,N
1678139755.7,286046999.2,N
1678139775.6,286046996.7,N
1678139795.4,286046996.7,N
1678139815.2,286046998.1,N
1678139835.1,286046999.4,N
1678139836.0,286046999.4,N
1678139855.8,286046996.6,N
1678139875.6,286046998.2,N
1678139895.5,286046999.0,N
1678139915.3,286046998.7,N
1678139935.2,286046998.1,N
1678139955.9,286047000.9,N
1678139975.7,286047000.3,N
1678139995.6,286047000.9,N
